Helicity
96 128 161 179 186 183 119 83 15 76 155 -4 99 70 48 93 139 107 85 86 126 80 39 34 28 20 3 -1 1 -3 -9 0 7 0 4 -3 -8 -7 9 24 40 42 36 23 10 3 -4 -2 -10
115 147 198 268 174 190 138 84 93 65 104 64 65 207 156 137 200 142 135 79 95 58 24 10 11 2 7 10 1 -13 -13 -6 -10 -10 -4 -5 -6 -10 -10 -3 3 5 4 -3 -9 -13 -15 -15 -22
116 149 234 303 222 145 90 120 32 51 112 138 72 78 101 208 198 90 79 52 85 36 1 -22 -11 -9 1 -3 -12 -18 -17 -19 -17 -16 -2 -8 -11 -15 -14 -17 -12 -9 -16 -14 -13 -11 -13 -19 -24
157 206 251 275 185 144 109 201 50 165 129 86 49 96 69 118 177 126 55 32 57 27 -3 -23 -24 -30 -34 -32 -30 -33 -31 -31 -25 -23 -4 -9 -13 -14 -14 -16 -18 -18 -20 -21 -18 -17 -16 -16 -16
141 257 299 260 183 110 25 157 165 243 147 103 136 49 45 82 176 101 36 12 77 63 27 -3 -6 -35 -54 -64 -71 -77 -66 -57 -54 -42 -28 -30 -26 -24 -26 -24 -26 -24 -24 -21 -18 -12 -3 -3 0
235 252 305 262 140 93 86 164 178 158 98 109 214 249 49 90 137 218 105 72 74 83 50 24 -5 -22 -40 -56 -69 -76 -81 -83 -92 -74 -33 -46 -35 -19 -13 -8 -10 -8 -7 -3 0 4 14 19 19
184 263 268 203 186 132 232 175 205 236 148 199 157 245 245 106 202 184 259 72 89 89 83 45 15 -6 -17 -36 -48 -47 -42 -53 -82 -60 -30 -28 -23 -19 -13 -2 4 4 10 10 14 18 19 26 29
166 208 226 204 215 153 160 111 75 209 249 185 203 153 270 261 149 80 156 91 73 75 88 81 54 25 5 -20 -26 -18 -4 -3 12 24 13 -8 3 8 13 3 16 26 30 33 38 39 37 34 38
145 234 215 206 250 185 178 152 99 150 206 260 182 137 168 235 130 68 152 129 86 43 50 78 62 38 29 15 -8 5 13 19 37 26 12 12 9 18 31 31 42 46 51 51 51 48 45 40 37
187 220 200 217 207 164 130 133 187 236 200 212 217 177 168 164 128 47 112 116 79 63 36 46 40 40 43 29 13 12 16 18 27 24 12 22 18 28 47 53 68 67 60 56 53 49 42 34 34
169 180 248 237 229 187 176 209 199 208 343 250 129 138 140 130 193 97 129 102 114 98 72 39 67 58 41 55 41 27 20 25 26 33 26 40 49 59 59 54 48 55 55 52 44 30 22 27 38
164 121 187 224 183 273 271 207 321 244 262 244 141 107 143 132 146 217 161 169 74 111 68 64 90 83 89 74 47 36 37 43 49 35 47 69 57 60 64 53 34 36 39 36 38 42 35 27 29
100 134 92 198 267 333 320 306 289 302 254 243 171 162 146 154 175 216 211 222 162 117 106 95 124 132 123 91 56 41 47 63 57 50 68 84 83 67 58 40 43 37 42 54 35 33 39 42 39
140 131 134 158 173 343 423 461 337 257 193 219 163 140 125 142 126 137 184 208 142 129 113 104 145 127 114 85 64 47 72 73 60 89 105 92 85 68 49 49 44 42 56 51 64 59 50 50 59
136 44 161 211 135 289 329 459 474 266 197 190 157 148 148 92 114 108 96 139 150 162 192 184 166 147 138 116 102 93 75 89 102 110 94 95 90 62 48 48 43 49 56 58 67 61 78 73 73
146 148 96 146 470 222 203 187 349 307 286 226 163 232 221 134 90 104 109 87 112 151 144 148 156 145 140 140 137 123 98 107 116 121 99 82 82 70 56 58 54 48 60 78 88 87 84 84 87
204 -27 122 154 73 87 177 195 196 104 94 99 144 155 159 174 134 93 105 99 86 119 118 133 137 137 107 109 128 114 86 91 133 125 99 81 86 68 67 65 57 68 86 99 101 97 91 88 85
163 93 80 101 98 80 199 157 176 41 59 36 82 97 128 99 119 90 65 87 65 99 124 120 118 118 94 108 120 147 136 143 117 117 87 70 69 62 73 73 67 75 103 109 114 102 101 108 106
121 132 95 82 10 84 74 101 110 90 69 72 57 96 82 125 74 93 91 73 76 98 119 123 130 125 154 167 158 138 132 115 96 85 59 63 63 56 83 83 74 123 113 106 109 120 108 110 137
60 44 67 35 -21 14 82 18 56 80 90 90 78 73 83 124 173 95 101 106 79 74 100 132 136 154 148 143 146 142 99 87 81 66 82 113 144 141 133 126 127 130 106 109 118 127 128 132 140
152 79 77 107 88 24 49 192 146 79 19 14 78 98 96 77 116 169 161 142 109 87 66 100 138 143 155 145 162 178 170 145 114 89 133 162 175 170 163 143 131 128 118 113 113 131 145 140 154
123 46 24 116 130 149 55 117 117 50 6 -60 -30 49 41 89 136 137 167 175 120 59 108 125 160 160 148 164 194 226 178 192 135 162 187 193 191 166 143 135 140 126 133 143 139 155 154 180 160
84 81 68 106 121 128 98 129 133 133 96 0 -59 -23 19 53 76 138 168 191 200 181 189 214 230 218 251 219 203 218 179 185 219 229 220 181 179 167 152 149 149 151 146 143 140 147 154 167 166
128 234 175 181 108 123 40 41 100 71 94 70 67 18 26 47 43 74 131 253 273 254 222 220 228 227 243 247 238 213 225 267 213 215 210 182 168 160 149 154 146 135 133 136 147 155 154 156 165
175 183 170 302 257 120 112 72 87 165 76 61 86 104 152 152 92 95 149 190 248 208 209 195 177 188 197 204 220 210 180 169 171 174 168 151 168 166 171 157 141 125 128 143 157 146 144 148 159
158 122 67 68 94 150 161 107 108 57 98 89 94 92 131 160 153 167 102 131 132 145 180 194 189 185 211 232 259 262 244 232 235 272 283 269 171 197 145 147 144 131 142 155 159 172 167 162 157
175 189 136 145 171 171 139 109 91 64 112 116 133 122 106 97 130 162 139 99 139 179 162 173 226 217 185 199 235 223 201 210 203 201 266 203 176 180 166 124 128 136 137 147 151 161 153 162 162
146 120 201 220 186 177 136 117 99 137 98 88 103 102 108 101 92 79 104 114 120 116 111 122 155 176 194 177 156 159 176 173 145 159 162 132 114 88 84 96 105 129 144 139 146 154 146 156 166
116 132 162 155 156 167 196 207 31 54 40 44 60 71 45 34 48 73 99 71 49 83 106 107 131 151 190 212 236 257 239 315 316 222 135 98 96 93 97 81 99 123 139 157 161 138 161 174 162
62 84 100 89 131 149 147 153 69 45 27 23 9 42 23 -20 -57 -38 -7 29 71 79 71 92 131 169 199 222 238 235 273 334 318 295 205 186 130 103 113 133 78 142 130 150 163 144 153 166 180
Wind_Speed
53 47 43 44 62 65 78 64 59 77 62 45 30 23 19 21 31 23 6 12 24 24 25 26 27 27 27 27 28 30 31 30 34 35 36 37 39 40 40 40 39 40 40 40 42 44 46 48 47
49 46 43 54 74 84 86 77 59 54 80 29 24 23 22 24 19 9 9 14 24 25 24 24 28 29 28 27 28 28 29 28 32 34 35 37 39 41 42 43 43 42 42 43 44 44 45 46 46
52 47 49 61 82 94 82 70 76 54 54 28 35 23 25 22 17 21 13 17 23 23 22 24 28 29 29 29 28 27 27 26 28 33 36 37 39 41 43 43 44 44 43 43 43 44 44 45 45
53 50 52 73 105 90 71 62 67 55 48 46 36 33 22 27 25 18 19 17 20 16 20 24 28 28 28 28 28 28 27 25 25 30 33 36 39 40 42 43 43 43 43 42 43 43 43 44 44
57 56 71 84 96 88 57 52 40 56 59 58 51 35 22 29 25 11 16 15 18 17 19 21 25 25 24 25 26 27 26 25 24 29 33 35 38 39 40 41 41 41 41 40 39 40 41 42 42
71 63 82 98 93 88 43 42 40 43 52 55 58 56 36 27 21 16 17 13 16 17 16 17 20 22 22 21 22 24 22 22 22 27 32 35 36 38 39 40 39 38 38 38 37 38 39 40 41
79 74 87 88 84 75 49 57 45 49 45 48 49 57 49 27 27 22 21 16 15 13 11 12 13 18 20 20 20 21 20 16 15 25 30 33 34 34 36 37 38 37 36 36 36 37 37 38 39
75 69 82 82 82 63 53 63 42 40 43 37 45 57 49 27 38 39 24 20 16 14 12 10 11 13 15 15 19 20 19 16 17 21 24 27 29 31 33 33 34 34 33 33 34 34 35 36 37
65 75 92 84 75 56 45 56 51 34 37 36 40 45 42 36 30 51 39 28 20 15 13 13 9 12 15 14 15 17 16 16 17 18 19 22 25 26 28 29 30 30 31 31 31 32 32 31 32
77 78 83 58 58 57 52 49 52 46 41 39 33 25 33 39 31 51 38 25 23 20 15 14 11 8 12 10 13 14 15 12 12 12 14 18 20 23 24 25 26 26 27 27 28 27 27 28 28
81 68 66 59 52 50 46 45 39 46 54 48 42 36 40 54 47 44 38 49 33 26 21 19 17 8 7 6 7 8 11 12 11 11 13 17 17 17 20 22 22 23 23 24 24 24 25 25 26
69 78 76 54 48 48 48 41 43 42 43 31 29 28 32 46 52 50 39 46 47 36 28 22 24 16 8 3 3 4 8 8 9 11 14 20 15 18 18 19 20 21 21 21 20 21 21 20 22
75 58 65 61 48 44 40 41 39 32 27 26 25 26 31 39 47 51 49 42 40 40 35 23 25 15 12 5 5 4 15 12 9 6 15 13 21 21 20 17 17 19 20 20 18 17 20 19 20
66 50 56 67 62 47 45 40 37 36 24 29 25 21 25 37 44 47 50 38 43 49 42 32 28 19 12 7 4 7 16 17 15 9 14 18 18 20 20 23 19 20 21 21 24 25 27 28 33
55 58 62 39 53 65 50 53 50 38 31 31 34 27 26 29 41 49 47 40 35 25 27 24 21 24 18 14 11 13 16 21 20 13 14 19 19 18 19 21 22 22 24 26 29 29 30 33 35
78 47 63 54 49 47 51 63 54 47 42 42 39 41 37 32 33 42 46 45 38 28 23 17 20 25 22 20 19 20 22 26 29 15 17 17 19 19 20 22 26 22 24 25 27 32 35 34 34
74 80 70 59 47 45 45 55 58 50 60 58 51 45 43 40 36 33 36 39 37 34 27 23 24 21 25 24 23 24 26 30 27 20 19 16 16 16 20 23 26 28 30 29 29 31 33 37 39
86 83 74 74 58 49 55 60 51 60 55 64 64 56 54 47 42 34 32 32 32 32 29 30 28 26 27 27 26 28 31 33 28 29 25 16 15 16 19 24 29 30 33 35 37 39 41 40 43
49 56 67 59 43 54 57 60 60 53 62 61 65 68 64 54 43 37 37 33 33 34 32 31 29 26 25 26 26 28 31 31 30 27 23 18 14 16 20 24 30 35 38 42 43 45 48 49 45
57 47 60 55 56 54 53 57 60 63 60 50 50 58 67 64 58 47 42 38 36 36 35 36 31 31 28 27 27 27 24 26 26 26 24 20 20 22 31 33 37 40 43 45 45 47 52 51 50
58 60 56 53 50 40 41 61 72 66 58 61 60 52 51 59 72 64 51 49 48 42 33 33 34 34 30 30 30 33 29 31 32 33 29 27 27 33 32 41 46 47 46 48 50 51 52 58 53
60 67 48 35 38 49 35 54 57 66 64 65 63 55 56 52 60 61 56 51 46 48 46 45 35 34 40 37 34 33 38 37 34 28 27 30 31 33 39 42 45 52 54 55 54 54 53 52 56
53 53 46 31 39 37 36 45 43 33 47 50 54 52 46 49 44 50 64 60 54 46 42 42 44 45 40 41 42 36 40 43 32 28 29 34 36 37 39 41 44 50 52 54 57 57 54 52 54
33 30 35 39 47 43 31 34 39 35 33 35 38 48 43 41 38 38 40 48 50 46 45 46 43 47 39 36 35 33 37 35 34 34 36 37 40 38 40 41 46 50 54 57 56 54 53 53 53
30 37 44 44 43 47 39 36 36 29 20 19 22 28 27 36 46 39 29 33 39 44 45 46 46 45 44 44 42 39 35 34 33 34 36 41 41 43 45 46 50 55 57 56 55 54 52 51 52
38 41 53 48 52 48 37 44 45 22 23 22 23 25 26 33 36 33 42 30 25 33 38 37 40 46 44 41 40 37 35 40 42 39 42 48 52 46 48 52 55 57 57 57 54 53 53 52 50
40 41 33 37 36 42 42 36 22 21 20 22 26 29 33 35 36 37 39 40 40 38 39 39 37 37 39 38 36 33 31 35 41 40 42 44 47 49 53 58 56 56 58 57 56 55 53 53 51
25 28 43 35 46 47 41 37 38 19 14 18 22 24 27 31 35 38 40 37 36 40 41 39 39 39 37 35 35 31 29 32 35 38 43 44 46 51 55 58 59 59 59 59 57 54 51 51 49
31 34 33 32 33 40 42 41 38 10 12 15 20 27 28 30 33 35 35 35 38 40 41 42 40 39 38 39 42 42 39 36 38 42 45 47 50 55 57 58 62 63 61 59 59 54 52 50 46
34 35 30 35 39 32 32 34 15 10 14 17 21 30 32 33 33 36 34 33 34 30 33 38 41 36 40 42 42 45 44 40 42 42 40 47 55 55 57 62 64 62 60 59 58 56 52 52 47
Wind_Direction
252 253 255 248 237 237 234 239 240 228 248 254 272 266 248 286 256 257 186 110 111 109 106 97 90 83 76 69 64 61 59 58 62 57 51 48 51 55 58 60 55 53 51 48 48 50 53 50 47
248 249 249 240 235 231 231 232 243 231 230 247 260 272 253 256 268 224 212 115 113 109 104 97 92 86 78 71 66 62 60 61 62 59 53 51 52 56 58 60 61 59 55 55 53 51 52 51 47
244 244 239 236 231 228 231 235 232 231 227 237 244 253 261 248 255 253 137 119 116 109 103 98 94 87 81 75 68 60 64 63 60 61 58 53 54 56 59 61 62 62 60 56 52 51 51 51 46
237 238 243 236 226 230 235 245 246 226 239 234 245 243 257 250 262 238 133 122 124 117 105 99 95 88 82 74 67 64 66 64 58 62 58 55 55 56 57 60 61 61 59 55 52 49 49 49 45
234 234 232 232 229 230 243 253 244 231 233 232 229 231 245 246 241 176 136 134 133 122 112 101 94 87 79 73 68 66 67 66 61 64 61 57 58 58 57 58 59 59 58 53 47 44 42 43 40
226 231 229 226 228 228 246 248 241 242 235 230 227 230 250 257 235 239 219 166 144 134 125 108 96 89 79 69 63 64 64 63 63 64 64 61 59 60 61 60 58 56 53 50 45 40 40 38 37
225 227 230 230 231 233 234 244 242 251 237 228 229 227 238 253 257 242 237 176 165 161 155 124 104 93 83 71 59 62 61 49 52 67 66 64 59 55 57 60 59 56 53 49 46 43 39 39 37
226 232 231 231 230 236 232 235 253 251 241 241 236 231 232 236 244 243 245 208 186 193 193 161 122 101 87 68 60 62 61 45 49 63 64 57 51 54 56 54 53 53 50 44 43 42 40 38 39
226 230 227 229 231 233 229 232 242 260 244 249 249 243 242 228 241 235 235 220 211 209 196 200 159 118 99 78 59 58 60 54 55 59 53 42 38 48 54 52 49 46 46 43 45 48 49 53 50
225 227 227 234 239 231 230 232 236 245 244 247 250 257 241 232 227 240 242 220 218 221 211 200 196 159 115 89 72 54 55 48 41 26 27 12 28 41 43 51 49 50 50 48 52 55 55 51 47
223 228 227 232 244 231 225 231 242 235 241 247 245 244 243 234 237 230 238 239 230 230 223 221 231 202 150 117 78 35 35 43 29 6 359 354 11 37 33 33 38 42 46 43 47 49 48 45 40
226 234 228 234 240 230 227 232 241 242 243 255 255 251 249 242 240 237 235 240 245 234 232 232 244 239 238 178 90 33 4 16 8 4 349 334 359 7 14 21 36 39 38 40 45 42 40 47 41
225 236 230 229 234 235 228 231 233 232 246 261 257 266 246 246 246 244 243 249 251 242 239 233 247 242 221 238 290 316 313 317 346 11 339 347 332 335 347 7 21 25 28 26 34 40 33 33 26
224 227 234 225 230 237 225 230 234 238 243 253 257 268 257 250 250 252 246 251 251 246 244 245 241 246 226 249 252 289 301 306 310 324 326 327 331 335 334 341 5 8 13 17 9 7 2 1 357
219 223 228 214 226 237 232 233 236 241 246 252 254 259 265 259 256 254 253 250 251 254 244 244 241 247 243 255 266 285 295 296 303 307 315 318 322 329 337 339 348 357 357 356 354 355 356 351 349
220 231 219 230 233 243 231 229 238 245 251 254 259 261 259 265 262 260 259 256 257 254 245 244 254 261 260 265 274 283 289 290 298 297 305 310 311 316 322 330 337 350 351 354 352 347 344 347 347
220 227 228 231 239 254 242 239 244 251 247 252 257 263 263 259 268 266 263 258 255 258 253 248 256 248 265 272 276 281 286 289 296 293 300 301 311 311 317 325 330 336 338 342 345 345 345 342 341
218 223 229 231 237 241 236 237 247 244 252 253 254 257 262 261 260 265 268 264 260 258 258 258 259 260 267 273 278 283 283 290 287 289 296 294 305 311 312 320 323 328 330 331 332 333 333 335 335
217 226 228 234 249 254 246 243 248 256 255 259 261 259 258 262 264 261 264 266 264 263 262 259 256 257 265 273 277 282 281 284 289 290 290 295 302 309 313 315 318 323 322 323 325 326 326 328 333
224 228 225 230 233 244 239 248 253 254 259 263 265 264 259 259 260 259 259 262 264 265 263 262 258 262 265 272 277 285 284 286 288 287 292 301 310 321 309 312 312 316 317 320 323 323 322 324 326
227 224 230 233 239 250 254 256 253 256 261 261 262 271 272 265 256 256 255 258 262 263 265 260 261 261 263 268 275 281 284 286 281 282 286 296 301 306 317 306 306 310 315 316 318 319 320 318 321
230 223 226 231 231 244 255 258 259 253 257 259 263 272 272 274 273 255 252 258 260 264 267 265 261 259 263 263 263 266 270 274 279 282 286 292 302 307 308 310 312 308 309 313 317 318 319 320 317
239 221 225 227 245 254 256 267 266 269 257 263 264 270 279 275 279 265 252 259 263 264 266 269 268 268 270 270 268 271 275 277 280 281 286 292 299 306 310 313 314 313 315 314 314 315 316 316 315
222 201 217 230 236 243 253 261 267 271 270 273 273 270 274 280 279 276 264 261 262 267 270 269 269 270 272 275 277 273 273 273 279 282 285 293 298 303 307 314 315 316 315 314 315 316 316 316 315
211 203 215 227 236 242 247 259 269 278 302 304 286 296 295 286 279 280 274 265 261 266 272 272 273 272 273 271 273 275 276 277 275 285 293 295 296 302 305 309 313 314 315 315 316 315 315 316 314
224 235 234 239 241 245 259 261 267 303 303 311 319 316 315 300 295 294 275 272 264 270 273 277 277 272 271 271 271 275 277 282 286 288 292 292 293 297 305 309 313 312 314 314 315 316 316 315 315
235 239 258 251 261 252 261 272 288 296 310 325 322 317 314 309 306 302 300 278 278 277 277 278 281 280 275 268 268 273 279 284 285 293 300 296 297 301 304 307 311 313 311 313 312 313 312 313 314
254 254 244 260 249 253 258 270 276 276 317 334 328 331 333 332 328 315 304 302 292 287 284 285 286 275 276 274 274 272 280 287 290 297 295 294 298 302 305 306 309 310 310 310 311 311 312 311 311
254 253 262 267 269 261 260 274 273 281 335 336 312 316 323 328 329 334 334 323 305 293 288 285 285 276 272 276 280 284 284 285 288 293 293 295 299 303 304 306 306 306 308 309 308 308 309 309 310
262 254 265 260 259 276 274 269 291 323 327 321 312 319 318 320 330 330 336 337 329 326 309 295 287 280 274 276 280 283 288 293 297 297 296 303 303 303 302 303 300 304 306 306 307 305 305 305 306